This is the latest recevied weather packets stored in our database for station/object EA1GEC-10. If no packets are shown the sender has not sent any weather packets the latest 10 day(s).
| Time | Temp. | Humidity | Pressure | Rain* | Wind** | Luminosity | Snow |
|---|---|---|---|---|---|---|---|
| 1777711405 | 17.78° C | 67% | 1023.4 hPa | - | - | - | - |
| 1777710505 | 17.22° C | 68% | 1023.3 hPa | - | - | - | - |
| 1777709605 | 17.22° C | 68% | 1023.4 hPa | - | - | - | - |
| 1777708705 | 16.67° C | 71% | 1023.4 hPa | - | - | - | - |
| 1777707814 | 15.56° C | 73% | 1023.4 hPa | - | - | - | - |
| 1777706905 | 15° C | 74% | 1023.4 hPa | - | - | - | - |
| 1777706004 | 15° C | 75% | 1023.4 hPa | - | - | - | - |
| 1777705104 | 15° C | 77% | 1023.3 hPa | - | - | - | - |
| 1777704204 | 15° C | 78% | 1023.4 hPa | - | - | - | - |
| 1777703304 | 15° C | 80% | 1023.4 hPa | - | - | - | - |
| 1777702404 | 14.44° C | 80% | 1023.4 hPa | - | - | - | - |
| 1777701504 | 14.44° C | 80% | 1023.3 hPa | - | - | - | - |
| 1777700604 | 14.44° C | 80% | 1023.3 hPa | - | - | - | - |
| 1777699704 | 14.44° C | 80% | 1023.1 hPa | - | - | - | - |
| 1777698815 | 14.44° C | 81% | 1023.2 hPa | - | - | - | - |
| 1777697913 | 14.44° C | 80% | 1023.2 hPa | - | - | - | - |
| 1777697005 | 14.44° C | 79% | 1023.4 hPa | - | - | - | - |
| 1777696104 | 15° C | 79% | 1023.4 hPa | - | - | - | - |
| 1777695203 | 15° C | 79% | 1023.6 hPa | - | - | - | - |
| 1777694303 | 15° C | 79% | 1023.6 hPa | - | - | - | - |
| 1777693417 | 15° C | 79% | 1023.8 hPa | - | - | - | - |
| 1777692513 | 15° C | 79% | 1023.7 hPa | - | - | - | - |
| 1777691608 | 15° C | 79% | 1023.8 hPa | - | - | - | - |
| 1777690703 | 15° C | 78% | 1023.7 hPa | - | - | - | - |
| 1777689812 | 15° C | 78% | 1023.9 hPa | - | - | - | - |
* Rain since midnight (hover to see other rain measurements)
** Current wind speed in m/s (hover to see current wind gust speed)